Regional Weather Roundup
Issued by NWS

Home | Current Version | Previous Version | Text Only | Print | Product List | Glossary Off
Versions: 1 2 3 4 5 6 7 8 9 10 11 12 13 14 15 16 17 18 19 20 21 22 23 24 25 26 27 28 29 30 31 32 33 34 35 36 37 38 39 40 41 42 43 44 45 46 47 48 49 50

000
ASUS45 KBOU 011110
RWRCO

WEATHER ROUNDUP FOR COLORADO
NATIONAL WEATHER SERVICE DENVER/BOULDER CO
500 AM MDT WED JUL 01 2015

NOTE: "FAIR" INDICATES FEW OR NO CLOUDS BELOW 12000 FEET WITH NO
SIGNIFICANT WEATHER AND/OR OBSTRUCTIONS TO VISIBILITY.

COZ001>005-013-030-031-011200-
...NORTHWEST COLORADO...

CITY           SKY/WX    TMP DP  RH WIND       PRES   REMARKS
CRAIG          MOCLDY    53  47  79 CALM      30.23R
HAYDEN         MOCLDY    59  46  63 E8        30.24R
MEEKER         MOCLDY    54  47  77 NE5       30.24R
MOUNT WERNER   NOT AVBL
STEAMBOAT SPGS MOCLDY    53  48  82 CALM      30.27R
WALDEN         PTCLDY    50  46  87 SE8       30.36S
$$

COZ006>008-011-011200-
...WEST CENTRAL VALLEYS...

CITY           SKY/WX    TMP DP  RH WIND       PRES   REMARKS
GRAND JUNCTION PTCLDY    66  45  46 NE5       30.08R
MONTROSE       PTCLDY    64  46  52 S6        30.16R
EAGLE          MOCLDY    55  48  76 E5        30.29S
RIFLE          MOCLDY    64  46  52 CALM      30.16R
DELTA          PTCLDY    67  49  53 NE7       30.12S
NUCLA          PTCLDY    64  45  48 CALM      30.19S
$$

COZ017>023-064>068-011200-
...SOUTHWEST COLORADO...

CITY           SKY/WX    TMP DP  RH WIND       PRES   REMARKS
DURANGO        CLOUDY    66  50  56 N6        30.24S
CORTEZ         CLEAR     67  47  48 VRB6      30.15R
PAGOSA SPRINGS CLOUDY    59  56  89 CALM      30.34S
TELLURIDE      MOCLDY    61  41  48 SE5       30.43S
WOLF CREEK PAS NOT AVBL
$$

COZ009-010-012-014-032>034-037-058>063-011200-
...CENTRAL COLORADO...

CITY           SKY/WX    TMP DP  RH WIND       PRES   REMARKS
ASPEN          PTCLDY    53  44  71 CALM      30.33R
BUENA VISTA    PTCLDY    56  46  70 CALM      30.35S
COPPER MTN     PTCLDY    54  36  50 W8G18     30.67S
BERTHOUD PASS  FAIR      45  36  70 NW21G30   30.71R
COTTONWOOD PAS NOT AVBL
GUNNISON       PTCLDY    55  45  67 NE5       30.37R
KREMMLING      MOCLDY    54  46  76 NE3       30.36R
LEADVILLE      CLEAR     44  39  82 NE5       30.49S
MONARCH PASS   MOCLDY    52  37  58 S18       30.75F
SALIDA         PTCLDY    57  52  83 CALM      30.40S
SUNLIGHT       MOCLDY    61  37  41 N3        30.59S
WILKERSON PASS CLEAR     52  39  62 W7        30.62R
$$

COZ069>075-011200-
...SAN LUIS VALLEY/SANGRE DE CRISTO MOUNTAINS...

CITY           SKY/WX    TMP DP  RH WIND       PRES   REMARKS
ALAMOSA        CLOUDY    61  49  64 S16       30.33S
LA VETA PASS   CLOUDY    50  43  76 MISG      30.50S
SAGUACHE       MOCLDY    52  46  82 CALM      30.38R
$$

COZ035-036-038>040-011200-
...NORTHERN COLORADO FRONT RANGE...

CITY           SKY/WX    TMP DP  RH WIND       PRES   REMARKS
DENVER INTL AP PTCLDY    67  54  63 SW7       30.11R
DMNS CITY PARK   N/A     66  55  66 S6        30.11S
AURORA         MOCLDY    63  54  72 SW6       30.14R
FRONT RANGE AP PTCLDY    66  55  68 MISG      30.12S
ERIE MUNI ARPT PTCLDY    60  55  82 N5        30.10R
BOULDER MUN AP PTCLDY    63  52  67 CALM      30.11R
CENTENNIAL     PTCLDY    65  52  62 CALM      30.14S
BROOMFIELD     MOCLDY    64  54  68 SW5       30.13R
FORT COLLINS   PTCLDY    63  55  77 CALM      30.11R
LONGMONT       PTCLDY    62  55  77 NW3       30.12R
$$

COZ041-046-047-076>085-087-088-011200-
...PIKES PEAK/PALMER DIVIDE AND SOUTHERN FOOTHILLS...

CITY           SKY/WX    TMP DP  RH WIND       PRES   REMARKS
COLO. SPRINGS  MOCLDY    62  52  69 N7        30.17S
A. F. ACADEMY  CLEAR     60  48  64 N6        30.19R
ELLICOTT         N/A    N/A N/A N/A CALM      30.15R
FALCON         PTCLDY    62  47  56 NW7       30.22S
FORT CARSON    MOCLDY    62  53  71 N6        30.12F
LIMON          PTCLDY    60  55  83 N5        30.10S
MONUMENT HILL  CLEAR     55  50  82 MISG      30.24R
TRINIDAD       MOCLDY    71  49  45 W6        30.15S
$$

COZ042>045-048>051-090-091-011200-
...NORTHEAST COLORADO...

CITY           SKY/WX    TMP DP  RH WIND       PRES   REMARKS
GREELEY ARPT   PTCLDY    63  57  82 NW6       30.08R
AKRON          PTCLDY    65  56  72 W14       30.04R
BURLINGTON     MOCLDY    69  55  60 NW10      30.00S
WRAY           PTCLDY    67  55  63 W9        29.96R
STERLING       PTCLDY    63  55  77 SW8         N/A
HOLYOKE        PTCLDY    73  59  60 NW13      29.95R
FORT MORGAN    PTCLDY    64  57  79 W7        30.04R
$$

COZ086-089-092>099-011200-
...SOUTHEAST COLORADO...

CITY           SKY/WX    TMP DP  RH WIND       PRES   REMARKS
PUEBLO         MOCLDY    67  54  63 NW3       30.05S
LA JUNTA       MOCLDY    72  54  53 W8        30.00S
LAMAR          MOCLDY    66  58  75 SW8       29.94S
SPRINGFIELD      N/A     66  49  54 SW8       30.01S
$$



USA.gov is the U.S. government's official web portal to all federal, state and local government web resources and services.